(186263) = 2001 YL44

Discovered at Socorro on 2001-12-18 by LINEAR.

Orbit

Orbit type: Main Belt

Note: WebGL enabled browser required.

epoch2024-03-31.0
epoch JD2460400.5
perihelion date2021-07-01.16435
perihelion JD2459396.66435
argument of perihelion (°)49.08233
ascending node (°)276.94329
inclination (°)13.43649
eccentricity0.2790979
perihelion distance (AU)1.8488929
Tisserand w.r.t. Jupiter3.3
ΔV w.r.t. Earth (km/sec)9.4
semimajor axis (AU)2.5646934
mean anomaly (°)240.88695
mean daily motion (°/day)0.23996650
aphelion distance (AU)3.280
period (years)4.11
P-vector [x]0.80875553
P-vector [y]-0.58484864
P-vector [z]-0.06218176
Q-vector [x]0.54102582
Q-vector [y]0.69832844
Q-vector [z]0.46864534
absolute magnitude15.12
phase slope0.15
uncertainty0
referenceMPEC 2024-F14
observations used1383
oppositions17
arc length (days)8162
first opposition used2001
last opposition used2024
residual rms (arc-secs)0.59
perturbers coarse indicatorM-v
perturbers precise indicator003Ek
first observation date used2001-11-11.0
last observation date used2024-03-17.0
computer nameMPCLINUX
JD of orbit computation2456670.938508
perihelion JD uncertainty (days)2.0577E-04
argument of perihelion uncertainty (°)7.4152E-05
ascending node uncertainty (°)5.1804E-05
inclination uncertainty (°)1.3652E-05
eccentricity uncertainty 6.8989E-08
perihelion distance uncertainty (AU)1.8571E-07
Minimum Orbit Intersection Distances (in AU)
for orbit epoch: 2460400.5, reference: E2024-G51
Mercury1.45132
Venus1.1494
Earth0.86501
Mars0.52276
Jupiter2.13227
Saturn5.95399
Uranus15.2648
Neptune27.0388

Observations

1412 total observations over interval: 2001 11 11.36285 – 2024 03 17.269692
These data are available for download (format description).

Date (UT) J2000 RA J2000 Dec Magn Location Ref
2001 11 11.36285 06 07 10.95 +30 26 43.0 19.6   704 – Lincoln Laboratory ETS, New Mexico MPS 47088
2001 11 11.39212 06 07 09.76 +30 26 40.0 19.9   704 – Lincoln Laboratory ETS, New Mexico MPS 47088
2001 11 11.40676 06 07 09.18 +30 26 38.1 19.6   704 – Lincoln Laboratory ETS, New Mexico MPS 47088
2001 11 11.42139 06 07 08.60 +30 26 34.3 19.9   704 – Lincoln Laboratory ETS, New Mexico MPS 47088
2001 12 18.30103 05 29 21.03 +28 06 11.7 19.7   704 – Lincoln Laboratory ETS, New Mexico MPS 45477
2001 12 18.31625 05 29 19.83 +28 06 07.7 18.7   704 – Lincoln Laboratory ETS, New Mexico MPS 45477
2001 12 18.33147 05 29 18.72 +28 06 02.7 18.9   704 – Lincoln Laboratory ETS, New Mexico MPS 45477
2001 12 18.34671 05 29 17.61 +28 05 57.9 18.3   704 – Lincoln Laboratory ETS, New Mexico MPS 45477
2001 12 18.36195 05 29 16.54 +28 05 52.9 18.4   704 – Lincoln Laboratory ETS, New Mexico MPS 45477
2001 12 19.30169 05 28 11.54 +28 00 43.7 18.6   704 – Lincoln Laboratory ETS, New Mexico MPS 45477
2001 12 19.31698 05 28 10.44 +28 00 38.6 19.1   704 – Lincoln Laboratory ETS, New Mexico MPS 45477
2001 12 19.33212 05 28 09.36 +28 00 33.9 19.0   704 – Lincoln Laboratory ETS, New Mexico MPS 45477
2001 12 19.34738 05 28 08.28 +28 00 29.1 18.7   704 – Lincoln Laboratory ETS, New Mexico MPS 45477
2001 12 19.36302 05 28 07.15 +28 00 23.5 19.0   704 – Lincoln Laboratory ETS, New Mexico MPS 45477
2002 01 08.22875 05 08 48.72 +26 06 14.5 20.0   704 – Lincoln Laboratory ETS, New Mexico MPS 47088
2002 01 08.24386 05 08 48.04 +26 06 09.1 19.8   704 – Lincoln Laboratory ETS, New Mexico MPS 47088
2002 01 08.25901 05 08 47.32 +26 06 04.7 19.6   704 – Lincoln Laboratory ETS, New Mexico MPS 47088
2002 01 08.27413 05 08 46.62 +26 05 59.0 19.9   704 – Lincoln Laboratory ETS, New Mexico MPS 47088
2002 01 08.28925 05 08 45.93 +26 05 54.4 19.4   704 – Lincoln Laboratory ETS, New Mexico MPS 47088
2002 01 14.15185 05 04 56.77 +25 33 34.5 19.6   704 – Lincoln Laboratory ETS, New Mexico MPS 47088
2002 01 14.16707 05 04 56.18 +25 33 29.9 20.1   704 – Lincoln Laboratory ETS, New Mexico MPS 47088
2002 01 14.18230 05 04 55.70 +25 33 24.6   704 – Lincoln Laboratory ETS, New Mexico MPS 47088
2004 06 11.16851 14 35 29.74 -29 20 37.4 18.5   704 – Lincoln Laboratory ETS, New Mexico MPS 109024
2004 06 11.18925 14 35 29.01 -29 20 23.6 18.8   704 – Lincoln Laboratory ETS, New Mexico MPS 109024
2004 06 11.19957 14 35 28.76 -29 20 17.6 18.8   704 – Lincoln Laboratory ETS, New Mexico MPS 109024
2004 06 11.20995 14 35 28.44 -29 20 10.6 18.7   704 – Lincoln Laboratory ETS, New Mexico MPS 109024
2004 06 15.49441 14 33 46.18 -28 34 25.4 18.1 R E12 – Siding Spring Survey MPS 109024
2004 06 15.50237 14 33 46.03 -28 34 20.9 18.5 R E12 – Siding Spring Survey MPS 109024
2004 06 15.51034 14 33 45.84 -28 34 15.2 18.1 R E12 – Siding Spring Survey MPS 109024
2004 06 15.51835 14 33 45.65 -28 34 10.5 18.6 R E12 – Siding Spring Survey MPS 109024
2004 07 08.50523 14 35 20.91 -25 07 23.5 19.1 R E12 – Siding Spring Survey MPS 110098
2004 07 08.51442 14 35 21.13 -25 07 19.3 18.2 R E12 – Siding Spring Survey MPS 110098
2004 07 08.52359 14 35 21.38 -25 07 15.4 18.6 R E12 – Siding Spring Survey MPS 110098
2004 07 08.53279 14 35 21.50 -25 07 11.5 18.4 R E12 – Siding Spring Survey MPS 110098
2005 08 31.41261 04 51 52.52 +33 11 32.7 19.8   704 – Lincoln Laboratory ETS, New Mexico MPS 140156
2005 08 31.42375 04 51 53.34 +33 11 33.4 19.9   704 – Lincoln Laboratory ETS, New Mexico MPS 140156
2005 08 31.43486 04 51 54.17 +33 11 36.0 19.6   704 – Lincoln Laboratory ETS, New Mexico MPS 140156
2005 10 30.33871 05 20 54.54 +33 55 18.6 18.9   704 – Lincoln Laboratory ETS, New Mexico MPS 147390
2005 10 30.35066 05 20 54.08 +33 55 16.5 19.1   704 – Lincoln Laboratory ETS, New Mexico MPS 147390
2005 10 30.36280 05 20 53.67 +33 55 16.0 19.1   704 – Lincoln Laboratory ETS, New Mexico MPS 147390
2005 10 30.37475 05 20 53.29 +33 55 15.3 18.9   704 – Lincoln Laboratory ETS, New Mexico MPS 147390
2005 12 02.36546 04 48 21.63 +31 37 09.9 17.7 V 703 – Catalina Sky Survey MPS 153579
2005 12 02.37179 04 48 21.20 +31 37 07.5 17.7 V 703 – Catalina Sky Survey MPS 153579
2005 12 02.37838 04 48 20.77 +31 37 05.1 17.7 V 703 – Catalina Sky Survey MPS 153579
2005 12 02.38481 04 48 20.19 +31 37 02.8 18.0 V 703 – Catalina Sky Survey MPS 153579
2005 12 05.24683 04 44 55.03 +31 17 12.9 18.9   704 – Lincoln Laboratory ETS, New Mexico MPS 153579
2005 12 05.26018 04 44 54.04 +31 17 08.2 18.8   704 – Lincoln Laboratory ETS, New Mexico MPS 153579
2005 12 05.27324 04 44 53.14 +31 17 03.0 18.7   704 – Lincoln Laboratory ETS, New Mexico MPS 153579
2005 12 05.28635 04 44 52.12 +31 16 57.1 19.1   704 – Lincoln Laboratory ETS, New Mexico MPS 153579
2005 12 05.29931 04 44 51.20 +31 16 51.2 18.7   704 – Lincoln Laboratory ETS, New Mexico MPS 153579
2005 12 06.19941 04 43 47.49 +31 10 25.4 19.4   704 – Lincoln Laboratory ETS, New Mexico MPS 153579
2005 12 06.21219 04 43 46.68 +31 10 20.7 19.3   704 – Lincoln Laboratory ETS, New Mexico MPS 153579
2005 12 06.22489 04 43 45.66 +31 10 13.2 19.7   704 – Lincoln Laboratory ETS, New Mexico MPS 153579
2005 12 06.23798 04 43 44.81 +31 10 06.3 19.8   704 – Lincoln Laboratory ETS, New Mexico MPS 153579
2005 12 21.20635 04 27 51.33 +29 14 39.1 18.3 V 703 – Catalina Sky Survey MPS 155797
2005 12 21.21282 04 27 50.94 +29 14 35.3 18.4 V 703 – Catalina Sky Survey MPS 155797
2005 12 21.21936 04 27 50.58 +29 14 32.5 18.3 V 703 – Catalina Sky Survey MPS 155797
2005 12 21.22590 04 27 50.29 +29 14 29.6 18.2 V 703 – Catalina Sky Survey MPS 155797
2005 12 28.17148 04 22 13.98 +28 19 50.8 18.6 V 703 – Catalina Sky Survey MPS 156486
2005 12 28.17969 04 22 13.54 +28 19 48.0 18.6 V 703 – Catalina Sky Survey MPS 156487
2005 12 28.18786 04 22 13.18 +28 19 43.8 18.6 V 703 – Catalina Sky Survey MPS 156487
2005 12 28.19609 04 22 12.86 +28 19 40.4 18.6 V 703 – Catalina Sky Survey MPS 156487
2005 12 29.20047 04 21 31.16 +28 11 57.2 19.3   704 – Lincoln Laboratory ETS, New Mexico MPS 156487
2005 12 29.21323 04 21 30.62 +28 11 51.6 19.3   704 – Lincoln Laboratory ETS, New Mexico MPS 156487
2005 12 29.22615 04 21 30.05 +28 11 45.7 19.4   704 – Lincoln Laboratory ETS, New Mexico MPS 156487
2005 12 29.23918 04 21 29.55 +28 11 39.8 20.3   704 – Lincoln Laboratory ETS, New Mexico MPS 156487
2005 12 29.25211 04 21 28.96 +28 11 32.7 19.7   704 – Lincoln Laboratory ETS, New Mexico MPS 156487
2006 01 06.20711 04 17 06.26 +27 12 55.4 19.1   704 – Lincoln Laboratory ETS, New Mexico MPS 158863
2006 01 06.22015 04 17 05.88 +27 12 49.4 19.9   704 – Lincoln Laboratory ETS, New Mexico MPS 158863
2006 01 06.23326 04 17 05.54 +27 12 43.9 19.2   704 – Lincoln Laboratory ETS, New Mexico MPS 158863
2006 01 06.24641 04 17 05.12 +27 12 38.9 19.6   704 – Lincoln Laboratory ETS, New Mexico MPS 158863
2006 01 06.25925 04 17 04.81 +27 12 33.0 19.8   704 – Lincoln Laboratory ETS, New Mexico MPS 158863
2006 03 03.14119 04 36 02.19 +23 32 35.3 20.1 V G96 – Mt. Lemmon Survey MPS 165975
2006 03 03.14627 04 36 02.48 +23 32 34.8 20.0 V G96 – Mt. Lemmon Survey MPS 165975
2006 03 03.15140 04 36 02.73 +23 32 34.3 19.9 V G96 – Mt. Lemmon Survey MPS 165975
2006 03 03.15650 04 36 03.02 +23 32 34.0 20.2 V G96 – Mt. Lemmon Survey MPS 165975
2007 02 10.31829 09 32 17.88 -00 20 24.8 19.4 V 703 – Catalina Sky Survey MPS 199426
2007 02 10.32470 09 32 17.41 -00 20 23.1 19.5 V 703 – Catalina Sky Survey MPS 199426
2007 02 10.33115 09 32 17.05 -00 20 22.6 20.3 V 703 – Catalina Sky Survey MPS 199426
2007 02 10.33759 09 32 16.76 -00 20 22.7 20.1 V 703 – Catalina Sky Survey MPS 199426
2008 05 01.67184 14 00 58.42 -32 09 12.0 18.6 V E12 – Siding Spring Survey MPS 248083
2008 05 01.68330 14 00 57.67 -32 09 06.7 18.5 V E12 – Siding Spring Survey MPS 248083
2008 05 01.69474 14 00 56.98 -32 09 01.8 18.6 V E12 – Siding Spring Survey MPS 248083
2008 05 01.70618 14 00 56.30 -32 08 56.2 18.7 V E12 – Siding Spring Survey MPS 248083
2008 05 09.59300 13 53 05.71 -31 03 59.2 18.8 V E12 – Siding Spring Survey MPS 249782
2008 05 09.61113 13 53 04.70 -31 03 49.7 18.4 V E12 – Siding Spring Survey MPS 249782
2008 05 09.62016 13 53 04.16 -31 03 44.8 18.7 V E12 – Siding Spring Survey MPS 249782
